Time,TemperatureF,DewpointF,PressureIn,WindDirection,WindDirectionDegrees,WindSpeedMPH,WindSpeedGustMPH,Humidity,HourlyPrecipIn,Conditions,Clouds,dailyrainin,SoftwareType,DateUTC
2013-02-22 00:00:00,57.0,23.4,29.89,SE,138,0.0,0.0,27,0.00,,CLR,0.01,VWS V14.01,2013-02-22 06:00:00,
2013-02-22 00:05:00,57.0,23.4,29.89,SE,138,0.0,0.0,27,0.00,,CLR,0.00,VWS V14.01,2013-02-22 06:05:00,
2013-02-22 00:10:00,56.9,25.0,29.89,SE,138,0.0,0.0,29,0.00,,CLR,0.00,VWS V14.01,2013-02-22 06:10:00,
2013-02-22 00:15:00,56.9,26.6,29.89,SE,138,0.0,0.0,31,0.00,,CLR,0.00,VWS V14.01,2013-02-22 06:15:00,
2013-02-22 00:20:00,56.6,27.1,29.89,SE,138,0.0,0.0,32,0.00,,CLR,0.00,VWS V14.01,2013-02-22 06:20:00,
2013-02-22 00:25:00,56.5,27.8,29.89,SE,138,0.0,0.0,33,0.00,,CLR,0.00,VWS V14.01,2013-02-22 06:25:00,
2013-02-22 00:30:00,56.2,26.8,29.91,SE,138,0.0,0.0,32,0.00,,CLR,0.00,VWS V14.01,2013-02-22 06:30:00,
2013-02-22 00:35:00,56.0,27.3,29.91,SE,138,0.0,0.0,33,0.00,,CLR,0.00,VWS V14.01,2013-02-22 06:35:00,
2013-02-22 00:40:00,55.9,28.0,29.91,SE,138,0.0,0.0,34,0.00,,CLR,0.00,VWS V14.01,2013-02-22 06:40:00,
2013-02-22 00:45:00,55.7,25.5,29.91,SE,138,0.0,0.0,31,0.00,,CLR,0.00,VWS V14.01,2013-02-22 06:45:00,
2013-02-22 00:50:00,55.6,26.2,29.91,SE,138,0.0,0.0,32,0.00,,CLR,0.00,VWS V14.01,2013-02-22 06:50:00,
2013-02-22 00:55:00,55.4,26.0,29.91,SE,138,0.0,0.0,32,0.00,,CLR,0.00,VWS V14.01,2013-02-22 06:55:00,
2013-02-22 01:00:00,55.3,26.7,29.91,SE,138,0.0,0.0,33,0.00,,CLR,0.00,VWS V14.01,2013-02-22 07:00:00,
2013-02-22 01:05:00,55.1,27.3,29.91,SE,138,0.0,0.0,34,0.00,,CLR,0.00,VWS V14.01,2013-02-22 07:05:00,
2013-02-22 01:10:00,55.1,27.3,29.91,SE,138,0.0,0.0,34,0.00,,CLR,0.00,VWS V14.01,2013-02-22 07:10:00,
2013-02-22 01:15:00,55.0,24.2,29.91,SE,138,0.0,0.0,30,0.00,,CLR,0.00,VWS V14.01,2013-02-22 07:15:00,
2013-02-22 01:20:00,55.9,23.3,29.91,SE,138,0.0,0.0,28,0.00,,CLR,0.00,VWS V14.01,2013-02-22 07:20:00,
2013-02-22 01:25:00,56.6,23.9,29.91,SE,138,0.0,0.0,28,0.00,,CLR,0.00,VWS V14.01,2013-02-22 07:25:00,
2013-02-22 01:30:00,57.0,24.2,29.91,SE,138,0.0,0.0,28,0.00,,CLR,0.00,VWS V14.01,2013-02-22 07:30:00,
2013-02-22 01:35:00,57.2,24.4,29.91,SE,138,0.0,0.0,28,0.00,,CLR,0.00,VWS V14.01,2013-02-22 07:35:00,
2013-02-22 01:40:00,57.2,24.4,29.91,SE,138,0.0,0.0,28,0.00,,CLR,0.00,VWS V14.01,2013-02-22 07:40:00,
2013-02-22 01:45:00,57.5,22.9,29.91,ESE,120,0.0,2.0,26,0.00,,CLR,0.00,VWS V14.01,2013-02-22 07:45:00,
2013-02-22 01:50:00,57.5,22.9,29.91,ESE,120,0.0,2.0,26,0.00,,CLR,0.00,VWS V14.01,2013-02-22 07:50:00,
2013-02-22 01:55:00,57.6,23.9,29.91,ESE,120,0.0,0.0,27,0.00,,CLR,0.00,VWS V14.01,2013-02-22 07:55:00,
2013-02-22 01:59:00,57.5,24.7,29.91,ESE,120,0.0,0.0,28,0.00,,CLR,0.00,VWS V14.01,2013-02-22 07:59:00,
2013-02-22 02:04:00,57.3,24.5,29.91,ESE,120,0.0,0.0,28,0.00,,CLR,0.00,VWS V14.01,2013-02-22 08:04:00,
2013-02-22 02:09:00,57.5,23.8,29.91,ESE,120,0.0,0.0,27,0.00,,CLR,0.00,VWS V14.01,2013-02-22 08:09:00,
2013-02-22 02:14:00,57.5,24.7,29.91,ESE,120,0.0,0.0,28,0.00,,CLR,0.00,VWS V14.01,2013-02-22 08:14:00,
2013-02-22 02:19:00,57.3,24.5,29.91,ESE,120,0.0,0.0,28,0.00,,CLR,0.00,VWS V14.01,2013-02-22 08:19:00,
2013-02-22 02:24:00,57.3,23.6,29.91,ESE,120,0.0,0.0,27,0.00,,CLR,0.00,VWS V14.01,2013-02-22 08:24:00,
2013-02-22 02:29:00,57.3,23.6,29.90,ESE,120,0.0,0.0,27,0.00,,CLR,0.00,VWS V14.01,2013-02-22 08:29:00,
2013-02-22 02:34:00,57.3,23.6,29.90,ESE,120,0.0,2.0,27,0.00,,CLR,0.00,VWS V14.01,2013-02-22 08:34:00,
2013-02-22 02:39:00,57.3,23.6,29.90,ESE,120,0.0,2.0,27,0.00,,CLR,0.00,VWS V14.01,2013-02-22 08:39:00,
2013-02-22 02:44:00,57.2,23.5,29.90,ESE,120,0.0,0.0,27,0.00,,CLR,0.00,VWS V14.01,2013-02-22 08:44:00,
2013-02-22 02:49:00,57.0,24.2,29.90,ESE,120,0.0,0.0,28,0.00,,CLR,0.00,VWS V14.01,2013-02-22 08:49:00,
2013-02-22 02:54:00,56.9,24.1,29.90,ESE,120,0.0,0.0,28,0.00,,CLR,0.00,VWS V14.01,2013-02-22 08:54:00,
2013-02-22 02:59:00,56.7,23.1,29.90,ESE,120,0.0,0.0,27,0.00,,CLR,0.00,VWS V14.01,2013-02-22 08:59:00,
2013-02-22 03:04:00,56.6,26.3,29.90,ESE,120,0.0,0.0,31,0.00,,CLR,0.00,VWS V14.01,2013-02-22 09:04:00,
2013-02-22 03:09:00,55.9,26.5,29.90,ESE,120,0.0,0.0,32,0.00,,CLR,0.00,VWS V14.01,2013-02-22 09:09:00,
2013-02-22 03:14:00,55.0,26.5,29.90,ESE,120,0.0,0.0,33,0.00,,CLR,0.00,VWS V14.01,2013-02-22 09:14:00,
2013-02-22 03:19:00,54.7,26.2,29.90,ESE,120,1.0,2.0,33,0.00,,CLR,0.00,VWS V14.01,2013-02-22 09:19:00,
2013-02-22 03:24:00,54.5,26.0,29.90,ESE,120,0.0,0.0,33,0.00,,CLR,0.00,VWS V14.01,2013-02-22 09:24:00,
2013-02-22 03:29:00,54.4,25.2,29.90,ESE,120,0.0,0.0,32,0.00,,CLR,0.00,VWS V14.01,2013-02-22 09:29:00,
2013-02-22 03:34:00,54.5,25.3,29.91,ESE,120,0.0,0.0,32,0.00,,CLR,0.00,VWS V14.01,2013-02-22 09:34:00,
2013-02-22 03:39:00,54.5,26.7,29.91,ESE,120,0.0,0.0,34,0.00,,CLR,0.00,VWS V14.01,2013-02-22 09:39:00,
2013-02-22 03:44:00,54.4,27.3,29.91,ESE,120,0.0,0.0,35,0.00,,CLR,0.00,VWS V14.01,2013-02-22 09:44:00,
2013-02-22 03:49:00,54.1,27.1,29.92,ESE,120,0.0,0.0,35,0.00,,CLR,0.00,VWS V14.01,2013-02-22 09:49:00,
2013-02-22 03:54:00,53.9,26.9,29.92,ESE,120,0.0,0.0,35,0.00,,CLR,0.00,VWS V14.01,2013-02-22 09:54:00,
2013-02-22 03:59:00,53.8,27.5,29.92,ESE,120,0.0,0.0,36,0.00,,CLR,0.00,VWS V14.01,2013-02-22 09:59:00,
2013-02-22 04:04:00,53.5,27.9,29.92,ESE,120,0.0,0.0,37,0.00,,CLR,0.00,VWS V14.01,2013-02-22 10:04:00,
2013-02-22 04:09:00,53.3,27.0,29.92,ESE,120,0.0,0.0,36,0.00,,CLR,0.00,VWS V14.01,2013-02-22 10:09:00,
2013-02-22 04:14:00,53.3,26.4,29.92,ESE,120,0.0,0.0,35,0.00,,CLR,0.00,VWS V14.01,2013-02-22 10:14:00,
2013-02-22 04:19:00,53.5,26.5,29.93,ESE,114,1.0,3.0,35,0.00,,CLR,0.00,VWS V14.01,2013-02-22 10:19:00,
2013-02-22 04:24:00,53.6,26.6,29.93,North,355,1.0,7.0,35,0.00,,CLR,0.00,VWS V14.01,2013-02-22 10:24:00,
2013-02-22 04:29:00,53.8,26.8,29.93,North,355,6.0,7.0,35,0.00,,CLR,0.00,VWS V14.01,2013-02-22 10:29:00,
2013-02-22 04:34:00,54.1,27.1,29.94,NNW,336,3.0,6.0,35,0.00,,CLR,0.00,VWS V14.01,2013-02-22 10:34:00,
2013-02-22 04:39:00,54.1,27.1,29.94,NNW,346,4.0,7.0,35,0.00,,CLR,0.00,VWS V14.01,2013-02-22 10:39:00,
2013-02-22 04:44:00,53.9,26.9,29.94,North,360,5.0,9.0,35,0.00,,CLR,0.00,VWS V14.01,2013-02-22 10:44:00,
2013-02-22 04:49:00,53.6,27.3,29.94,North,349,7.0,13.0,36,0.00,,CLR,0.00,VWS V14.01,2013-02-22 10:49:00,
2013-02-22 04:54:00,53.2,28.9,29.94,NNE,22,7.0,11.0,39,0.00,,CLR,0.00,VWS V14.01,2013-02-22 10:54:00,
2013-02-22 04:59:00,52.9,29.9,29.94,North,11,4.0,12.0,41,0.00,,CLR,0.00,VWS V14.01,2013-02-22 10:59:00,
2013-02-22 05:04:00,52.6,30.8,29.94,NW,322,9.0,12.0,43,0.00,,CLR,0.00,VWS V14.01,2013-02-22 11:04:00,
2013-02-22 05:09:00,52.5,31.2,29.94,NNW,348,9.0,12.0,44,0.00,,CLR,0.00,VWS V14.01,2013-02-22 11:09:00,
2013-02-22 05:14:00,52.2,32.6,29.94,NW,318,9.0,12.0,47,0.00,,CLR,0.00,VWS V14.01,2013-02-22 11:14:00,
2013-02-22 05:19:00,52.2,33.6,29.96,North,355,8.0,14.0,49,0.00,,CLR,0.00,VWS V14.01,2013-02-22 11:19:00,
2013-02-22 05:24:00,52.0,34.5,29.96,NW,323,6.0,14.0,51,0.00,,CLR,0.00,VWS V14.01,2013-02-22 11:24:00,
2013-02-22 05:29:00,52.0,35.4,29.96,NNW,343,9.0,15.0,53,0.00,,CLR,0.00,VWS V14.01,2013-02-22 11:29:00,
2013-02-22 05:34:00,52.2,36.1,29.96,North,5,9.0,16.0,54,0.00,,CLR,0.00,VWS V14.01,2013-02-22 11:34:00,
2013-02-22 05:39:00,52.2,37.0,29.96,NNW,338,10.0,17.0,56,0.00,,CLR,0.00,VWS V14.01,2013-02-22 11:39:00,
2013-02-22 05:44:00,52.0,37.2,29.96,NNE,24,12.0,15.0,57,0.00,,CLR,0.00,VWS V14.01,2013-02-22 11:44:00,
2013-02-22 05:49:00,52.0,37.7,29.96,NNE,17,6.0,15.0,58,0.00,,CLR,0.00,VWS V14.01,2013-02-22 11:49:00,
2013-02-22 05:54:00,51.9,37.6,29.96,North,355,12.0,16.0,58,0.00,,CLR,0.00,VWS V14.01,2013-02-22 11:54:00,
2013-02-22 05:59:00,51.7,37.8,29.96,NNW,338,20.0,20.0,59,0.00,,CLR,0.00,VWS V14.01,2013-02-22 11:59:00,
2013-02-22 06:04:00,51.6,38.2,29.96,North,355,6.0,13.0,60,0.00,,CLR,0.00,VWS V14.01,2013-02-22 12:04:00,
2013-02-22 06:09:00,51.4,38.4,29.96,WNW,290,11.0,18.0,61,0.00,,CLR,0.00,VWS V14.01,2013-02-22 12:09:00,
2013-02-22 06:14:00,51.3,38.3,29.96,NNW,333,12.0,17.0,61,0.00,,CLR,0.00,VWS V14.01,2013-02-22 12:14:00,
2013-02-22 06:19:00,51.1,38.5,29.96,NNW,338,11.0,23.0,62,0.00,,CLR,0.00,VWS V14.01,2013-02-22 12:19:00,
2013-02-22 06:24:00,51.0,38.9,29.96,North,5,13.0,21.0,63,0.00,,CLR,0.00,VWS V14.01,2013-02-22 12:24:00,
2013-02-22 06:29:00,50.8,38.7,29.96,NNW,338,10.0,21.0,63,0.00,,CLR,0.00,VWS V14.01,2013-02-22 12:29:00,
2013-02-22 06:34:00,50.7,39.0,29.97,North,355,11.0,17.0,64,0.00,,CLR,0.00,VWS V14.01,2013-02-22 12:34:00,
2013-02-22 06:39:00,50.4,38.7,29.97,North,360,13.0,21.0,64,0.00,,CLR,0.00,VWS V14.01,2013-02-22 12:39:00,
2013-02-22 06:44:00,50.2,38.9,29.97,NNW,333,14.0,15.0,65,0.00,,CLR,0.00,VWS V14.01,2013-02-22 12:44:00,
2013-02-22 06:49:00,50.1,38.8,29.97,NNW,340,16.0,17.0,65,0.00,,CLR,0.00,VWS V14.01,2013-02-22 12:49:00,
2013-02-22 06:54:00,49.9,39.0,29.97,ENE,76,4.0,20.0,66,0.00,,CLR,0.00,VWS V14.01,2013-02-22 12:54:00,
2013-02-22 06:59:00,49.9,39.0,29.97,NNW,332,11.0,20.0,66,0.00,,CLR,0.00,VWS V14.01,2013-02-22 12:59:00,
2013-02-22 07:04:00,49.8,38.9,29.98,North,5,7.0,16.0,66,0.00,,CLR,0.00,VWS V14.01,2013-02-22 13:04:00,
2013-02-22 07:09:00,49.6,38.7,29.98,NNW,330,3.0,17.0,66,0.00,,CLR,0.00,VWS V14.01,2013-02-22 13:09:00,
2013-02-22 07:14:00,49.6,39.1,29.98,NNW,327,6.0,13.0,67,0.00,,CLR,0.00,VWS V14.01,2013-02-22 13:14:00,
2013-02-22 07:19:00,49.5,39.0,29.98,North,5,7.0,17.0,67,0.00,,CLR,0.00,VWS V14.01,2013-02-22 13:19:00,
2013-02-22 07:24:00,49.5,39.0,29.98,NNW,339,10.0,16.0,67,0.00,,CLR,0.00,VWS V14.01,2013-02-22 13:24:00,
2013-02-22 07:29:00,49.5,39.0,29.98,NNW,332,9.0,16.0,67,0.00,,CLR,0.00,VWS V14.01,2013-02-22 13:29:00,
2013-02-22 07:34:00,49.4,38.9,29.99,North,349,16.0,20.0,67,0.00,,CLR,0.00,VWS V14.01,2013-02-22 13:34:00,
2013-02-22 07:39:00,49.4,39.3,29.99,North,355,10.0,20.0,68,0.00,,CLR,0.00,VWS V14.01,2013-02-22 13:39:00,
2013-02-22 07:44:00,49.2,39.1,29.99,NNW,328,15.0,15.0,68,0.00,,CLR,0.00,VWS V14.01,2013-02-22 13:44:00,
2013-02-22 07:49:00,49.2,39.1,29.99,NNW,330,9.0,19.0,68,0.00,,CLR,0.00,VWS V14.01,2013-02-22 13:49:00,
2013-02-22 07:54:00,49.1,39.4,29.99,NNW,337,19.0,19.0,69,0.00,,CLR,0.00,VWS V14.01,2013-02-22 13:54:00,
2013-02-22 07:59:00,48.9,39.2,29.99,NNW,333,12.0,19.0,69,0.00,,OVC095,0.00,VWS V14.01,2013-02-22 13:59:00,
2013-02-22 08:04:00,48.8,39.1,30.01,North,355,10.0,12.0,69,0.00,,OVC095,0.00,VWS V14.01,2013-02-22 14:04:00,
2013-02-22 08:09:00,48.8,39.1,30.01,NNE,25,6.0,19.0,69,0.00,,OVC095,0.00,VWS V14.01,2013-02-22 14:09:00,
2013-02-22 08:14:00,48.6,38.5,30.01,NW,313,7.0,16.0,68,0.00,,OVC095,0.00,VWS V14.01,2013-02-22 14:14:00,
2013-02-22 08:19:00,48.8,38.7,30.02,NNW,332,8.0,16.0,68,0.00,,OVC095,0.00,VWS V14.01,2013-02-22 14:19:00,
2013-02-22 08:24:00,48.8,38.3,30.02,North,11,7.0,16.0,67,0.00,,OVC095,0.00,VWS V14.01,2013-02-22 14:24:00,
2013-02-22 08:29:00,48.9,38.4,30.02,NNW,342,13.0,18.0,67,0.00,,OVC095,0.00,VWS V14.01,2013-02-22 14:29:00,
2013-02-22 08:34:00,49.1,38.6,30.03,NNW,347,9.0,16.0,67,0.00,,OVC095,0.00,VWS V14.01,2013-02-22 14:34:00,
2013-02-22 08:39:00,49.4,38.5,30.03,NE,34,15.0,16.0,66,0.00,,OVC095,0.00,VWS V14.01,2013-02-22 14:39:00,
2013-02-22 08:44:00,49.1,38.2,30.03,North,5,5.0,17.0,66,0.00,,OVC095,0.00,VWS V14.01,2013-02-22 14:44:00,
2013-02-22 08:49:00,48.9,38.1,30.04,NW,319,5.0,17.0,66,0.00,,OVC095,0.00,VWS V14.01,2013-02-22 14:49:00,
2013-02-22 08:54:00,48.8,38.0,30.04,North,355,13.0,19.0,66,0.00,,OVC095,0.00,VWS V14.01,2013-02-22 14:54:00,
2013-02-22 08:59:00,48.8,38.0,30.04,NW,323,9.0,19.0,66,0.00,,BKN095,0.00,VWS V14.01,2013-02-22 14:59:00,
2013-02-22 09:04:00,48.9,38.1,30.04,NW,320,5.0,18.0,66,0.00,,BKN095,0.00,VWS V14.01,2013-02-22 15:04:00,
2013-02-22 09:09:00,49.2,38.0,30.04,NE,51,6.0,18.0,65,0.00,,BKN095,0.00,VWS V14.01,2013-02-22 15:09:00,
2013-02-22 09:14:00,49.2,38.0,30.04,North,355,7.0,13.0,65,0.00,,BKN095,0.00,VWS V14.01,2013-02-22 15:14:00,
2013-02-22 09:19:00,49.4,37.8,30.05,NW,320,12.0,17.0,64,0.00,,BKN095,0.00,VWS V14.01,2013-02-22 15:19:00,
2013-02-22 09:24:00,49.5,37.8,30.05,North,5,7.0,13.0,64,0.00,,BKN095,0.00,VWS V14.01,2013-02-22 15:24:00,
2013-02-22 09:29:00,49.4,37.3,30.05,NNE,29,11.0,17.0,63,0.00,,BKN095,0.00,VWS V14.01,2013-02-22 15:29:00,
2013-02-22 09:34:00,49.4,37.3,30.04,NNW,338,5.0,17.0,63,0.00,,BKN095,0.00,VWS V14.01,2013-02-22 15:34:00,
2013-02-22 09:39:00,49.6,37.5,30.04,North,360,12.0,17.0,63,0.00,,BKN095,0.00,VWS V14.01,2013-02-22 15:39:00,
2013-02-22 09:44:00,49.8,37.7,30.04,NW,325,16.0,16.0,63,0.00,,BKN095,0.00,VWS V14.01,2013-02-22 15:44:00,
2013-02-22 09:49:00,49.8,37.7,30.04,North,9,6.0,18.0,63,0.00,,BKN095,0.00,VWS V14.01,2013-02-22 15:49:00,
2013-02-22 09:54:00,49.9,37.4,30.04,NW,317,13.0,17.0,62,0.00,,BKN095,0.00,VWS V14.01,2013-02-22 15:54:00,
2013-02-22 09:59:00,50.1,37.6,30.04,NNW,346,16.0,19.0,62,0.00,,FEW095,0.00,VWS V14.01,2013-02-22 15:59:00,
2013-02-22 10:04:00,50.4,37.5,30.04,North,355,11.0,17.0,61,0.00,,FEW095,0.00,VWS V14.01,2013-02-22 16:04:00,
2013-02-22 10:09:00,50.7,37.8,30.04,NNW,341,16.0,18.0,61,0.00,,FEW095,0.00,VWS V14.01,2013-02-22 16:09:00,
2013-02-22 10:14:00,51.1,38.1,30.04,NW,326,14.0,14.0,61,0.00,,FEW095,0.00,VWS V14.01,2013-02-22 16:14:00,
2013-02-22 10:19:00,51.4,37.6,30.05,NNW,343,11.0,22.0,59,0.00,,FEW095,0.00,VWS V14.01,2013-02-22 16:19:00,
2013-02-22 10:24:00,51.6,38.2,30.05,NNW,342,13.0,17.0,60,0.00,,FEW095,0.00,VWS V14.01,2013-02-22 16:24:00,
2013-02-22 10:29:00,52.0,37.7,30.05,North,355,6.0,17.0,58,0.00,,FEW095,0.00,VWS V14.01,2013-02-22 16:29:00,
2013-02-22 10:34:00,52.3,38.0,30.04,NNW,346,18.0,18.0,58,0.00,,FEW095,0.00,VWS V14.01,2013-02-22 16:34:00,
2013-02-22 10:39:00,52.8,38.0,30.04,NNW,344,13.0,19.0,57,0.00,,FEW095,0.00,VWS V14.01,2013-02-22 16:39:00,
2013-02-22 10:44:00,53.1,37.8,30.04,NE,34,12.0,19.0,56,0.00,,FEW095,0.00,VWS V14.01,2013-02-22 16:44:00,
2013-02-22 10:49:00,53.1,37.8,30.04,NW,315,9.0,19.0,56,0.00,,FEW095,0.00,VWS V14.01,2013-02-22 16:49:00,
2013-02-22 10:54:00,53.2,37.9,30.04,NNE,22,10.0,18.0,56,0.00,,FEW095,0.00,VWS V14.01,2013-02-22 16:54:00,
2013-02-22 10:59:00,53.3,37.6,30.04,NE,39,10.0,18.0,55,0.00,,CLR,0.00,VWS V14.01,2013-02-22 16:59:00,
2013-02-22 11:04:00,53.5,37.3,30.04,NNE,29,9.0,16.0,54,0.00,,CLR,0.00,VWS V14.01,2013-02-22 17:04:00,
2013-02-22 11:09:00,53.8,37.6,30.04,ENE,74,3.0,16.0,54,0.00,,CLR,0.00,VWS V14.01,2013-02-22 17:09:00,
2013-02-22 11:14:00,54.1,37.8,30.04,North,355,10.0,15.0,54,0.00,,CLR,0.00,VWS V14.01,2013-02-22 17:14:00,
2013-02-22 11:19:00,54.7,37.9,30.04,NNE,12,10.0,17.0,53,0.00,,CLR,0.00,VWS V14.01,2013-02-22 17:19:00,
2013-02-22 11:24:00,54.8,37.5,30.04,NNE,19,15.0,15.0,52,0.00,,CLR,0.00,VWS V14.01,2013-02-22 17:24:00,
2013-02-22 11:29:00,55.1,37.8,30.04,ENE,64,7.0,15.0,52,0.00,,CLR,0.00,VWS V14.01,2013-02-22 17:29:00,
2013-02-22 11:34:00,55.4,37.6,30.04,NNW,335,16.0,17.0,51,0.00,,CLR,0.00,VWS V14.01,2013-02-22 17:34:00,
2013-02-22 11:39:00,55.1,37.3,30.04,NNE,24,9.0,17.0,51,0.00,,CLR,0.00,VWS V14.01,2013-02-22 17:39:00,
2013-02-22 11:44:00,55.4,37.6,30.04,NNE,26,14.0,18.0,51,0.00,,CLR,0.00,VWS V14.01,2013-02-22 17:44:00,
2013-02-22 11:49:00,55.9,37.0,30.03,NW,326,6.0,18.0,49,0.00,,CLR,0.00,VWS V14.01,2013-02-22 17:49:00,
2013-02-22 11:54:00,56.3,36.9,30.03,NNE,24,4.0,16.0,48,0.00,,CLR,0.00,VWS V14.01,2013-02-22 17:54:00,
2013-02-22 11:59:00,56.6,37.2,30.03,NNE,32,11.0,16.0,48,0.00,,CLR,0.00,VWS V14.01,2013-02-22 17:59:00,
2013-02-22 12:04:00,56.5,37.1,30.03,NE,51,6.0,16.0,48,0.00,,CLR,0.00,VWS V14.01,2013-02-22 18:04:00,
2013-02-22 12:09:00,56.6,37.2,30.03,NW,317,11.0,17.0,48,0.00,,CLR,0.00,VWS V14.01,2013-02-22 18:09:00,
2013-02-22 12:14:00,56.7,36.7,30.03,NNW,338,12.0,14.0,47,0.00,,CLR,0.00,VWS V14.01,2013-02-22 18:14:00,
2013-02-22 12:19:00,56.6,36.6,30.03,NNW,329,7.0,16.0,47,0.00,,CLR,0.00,VWS V14.01,2013-02-22 18:19:00,
2013-02-22 12:24:00,56.9,36.3,30.03,NW,304,7.0,13.0,46,0.00,,CLR,0.00,VWS V14.01,2013-02-22 18:24:00,
2013-02-22 12:29:00,57.2,36.1,30.03,North,355,10.0,15.0,45,0.00,,CLR,0.00,VWS V14.01,2013-02-22 18:29:00,
2013-02-22 12:34:00,57.0,35.3,30.02,NNE,28,12.0,13.0,44,0.00,,CLR,0.00,VWS V14.01,2013-02-22 18:34:00,
2013-02-22 12:39:00,57.0,35.9,30.02,North,350,10.0,17.0,45,0.00,,CLR,0.00,VWS V14.01,2013-02-22 18:39:00,
2013-02-22 12:44:00,57.2,34.9,30.02,NNW,331,9.0,19.0,43,0.00,,CLR,0.00,VWS V14.01,2013-02-22 18:44:00,
2013-02-22 12:49:00,57.3,35.0,30.02,North,5,11.0,19.0,43,0.00,,CLR,0.00,VWS V14.01,2013-02-22 18:49:00,
2013-02-22 12:54:00,57.5,34.6,30.02,NNW,344,10.0,15.0,42,0.00,,CLR,0.00,VWS V14.01,2013-02-22 18:54:00,
2013-02-22 12:59:00,57.3,34.4,30.02,North,5,9.0,16.0,42,0.00,,CLR,0.00,VWS V14.01,2013-02-22 18:59:00,
2013-02-22 13:04:00,57.6,35.3,30.01,East,80,10.0,13.0,43,0.00,,CLR,0.00,VWS V14.01,2013-02-22 19:04:00,
2013-02-22 13:09:00,57.0,34.8,30.01,NNW,329,11.0,18.0,43,0.00,,CLR,0.00,VWS V14.01,2013-02-22 19:09:00,
2013-02-22 13:13:00,57.0,34.2,30.01,NNE,27,5.0,20.0,42,0.00,,CLR,0.00,VWS V14.01,2013-02-22 19:13:00,
2013-02-22 13:18:00,57.8,34.9,30.00,NE,52,10.0,20.0,42,0.00,,CLR,0.00,VWS V14.01,2013-02-22 19:18:00,
2013-02-22 13:23:00,57.8,34.9,30.00,NNW,341,9.0,18.0,42,0.00,,CLR,0.00,VWS V14.01,2013-02-22 19:23:00,
2013-02-22 13:28:00,57.8,34.9,30.00,North,10,10.0,18.0,42,0.00,,CLR,0.00,VWS V14.01,2013-02-22 19:28:00,
2013-02-22 13:33:00,58.1,33.9,29.99,NW,314,5.0,12.0,40,0.00,,CLR,0.00,VWS V14.01,2013-02-22 19:33:00,
2013-02-22 13:38:00,57.5,34.6,29.99,NNW,344,12.0,14.0,42,0.00,,CLR,0.00,VWS V14.01,2013-02-22 19:38:00,
2013-02-22 13:43:00,57.3,34.4,29.99,NNW,336,9.0,12.0,42,0.00,,CLR,0.00,VWS V14.01,2013-02-22 19:43:00,
2013-02-22 13:48:00,57.6,34.7,29.99,NNE,21,9.0,13.0,42,0.00,,CLR,0.00,VWS V14.01,2013-02-22 19:48:00,
2013-02-22 13:53:00,58.1,34.5,29.99,NE,49,3.0,13.0,41,0.00,,CLR,0.00,VWS V14.01,2013-02-22 19:53:00,
2013-02-22 13:58:00,58.3,34.1,29.99,North,360,8.0,15.0,40,0.00,,OVC050,0.00,VWS V14.01,2013-02-22 19:58:00,
2013-02-22 14:03:00,57.8,33.7,29.98,NNE,25,2.0,13.0,40,0.00,,OVC050,0.00,VWS V14.01,2013-02-22 20:03:00,
2013-02-22 14:08:00,58.7,34.5,29.98,NNW,343,7.0,13.0,40,0.00,,OVC050,0.00,VWS V14.01,2013-02-22 20:08:00,
2013-02-22 14:13:00,58.7,33.8,29.98,NNW,335,5.0,15.0,39,0.00,,OVC050,0.00,VWS V14.01,2013-02-22 20:13:00,
2013-02-22 14:18:00,59.2,33.6,29.97,NE,51,12.0,15.0,38,0.00,,OVC050,0.00,VWS V14.01,2013-02-22 20:18:00,
2013-02-22 14:23:00,59.3,33.7,29.97,NNW,347,6.0,16.0,38,0.00,,OVC050,0.00,VWS V14.01,2013-02-22 20:23:00,
2013-02-22 14:28:00,59.2,33.6,29.97,North,355,5.0,16.0,38,0.00,,OVC050,0.00,VWS V14.01,2013-02-22 20:28:00,
2013-02-22 14:33:00,59.6,34.0,29.96,North,11,9.0,12.0,38,0.00,,OVC050,0.00,VWS V14.01,2013-02-22 20:33:00,
2013-02-22 14:38:00,59.5,33.2,29.96,NNW,339,6.0,13.0,37,0.00,,OVC050,0.00,VWS V14.01,2013-02-22 20:38:00,
2013-02-22 14:43:00,59.9,32.9,29.96,ENE,64,5.0,13.0,36,0.00,,OVC050,0.00,VWS V14.01,2013-02-22 20:43:00,
2013-02-22 14:48:00,59.9,32.9,29.96,NE,42,10.0,16.0,36,0.00,,OVC050,0.00,VWS V14.01,2013-02-22 20:48:00,
2013-02-22 14:53:00,60.4,32.7,29.96,North,5,3.0,13.0,35,0.00,,OVC050,0.00,VWS V14.01,2013-02-22 20:53:00,
2013-02-22 14:58:00,60.5,32.7,29.96,North,349,5.0,13.0,35,0.00,,OVC055,0.00,VWS V14.01,2013-02-22 20:58:00,
2013-02-22 15:03:00,60.4,32.7,29.96,NNW,332,13.0,13.0,35,0.00,,OVC055,0.00,VWS V14.01,2013-02-22 21:03:00,
2013-02-22 15:08:00,59.9,32.9,29.96,NW,313,10.0,15.0,36,0.00,,OVC055,0.00,VWS V14.01,2013-02-22 21:08:00,
2013-02-22 15:13:00,59.6,32.6,29.96,NNE,32,11.0,16.0,36,0.00,,OVC055,0.00,VWS V14.01,2013-02-22 21:13:00,
2013-02-22 15:18:00,59.9,32.9,29.96,NNE,19,4.0,16.0,36,0.00,,OVC055,0.00,VWS V14.01,2013-02-22 21:18:00,
2013-02-22 15:23:00,60.7,32.9,29.96,NNE,20,10.0,10.0,35,0.00,,OVC055,0.00,VWS V14.01,2013-02-22 21:23:00,
2013-02-22 15:28:00,60.5,32.7,29.96,NNE,30,2.0,11.0,35,0.00,,OVC055,0.00,VWS V14.01,2013-02-22 21:28:00,
2013-02-22 15:33:00,60.5,32.7,29.95,NNW,331,5.0,15.0,35,0.00,,OVC055,0.00,VWS V14.01,2013-02-22 21:33:00,
2013-02-22 15:38:00,61.2,32.6,29.95,NE,43,2.0,15.0,34,0.00,,OVC055,0.00,VWS V14.01,2013-02-22 21:38:00,
2013-02-22 15:43:00,60.7,32.9,29.95,NNE,33,6.0,9.0,35,0.00,,OVC055,0.00,VWS V14.01,2013-02-22 21:43:00,
2013-02-22 15:48:00,60.7,32.9,29.95,East,96,4.0,9.0,35,0.00,,OVC055,0.00,VWS V14.01,2013-02-22 21:48:00,
2013-02-22 15:53:00,60.9,33.1,29.95,NNW,344,6.0,12.0,35,0.00,,OVC055,0.00,VWS V14.01,2013-02-22 21:53:00,
2013-02-22 15:58:00,61.3,33.4,29.95,NNW,345,9.0,12.0,35,0.00,,FEW055,0.00,VWS V14.01,2013-02-22 21:58:00,
2013-02-22 16:03:00,60.2,32.5,29.94,North,5,9.0,13.0,35,0.00,,FEW055,0.00,VWS V14.01,2013-02-22 22:03:00,
2013-02-22 16:08:00,60.4,32.7,29.94,NNW,343,11.0,15.0,35,0.00,,FEW055,0.00,VWS V14.01,2013-02-22 22:08:00,
2013-02-22 16:13:00,60.4,33.3,29.94,North,360,7.0,16.0,36,0.00,,FEW055,0.00,VWS V14.01,2013-02-22 22:13:00,
2013-02-22 16:18:00,60.5,32.7,29.94,NNW,327,12.0,17.0,35,0.00,,FEW055,0.00,VWS V14.01,2013-02-22 22:18:00,
2013-02-22 16:23:00,60.1,33.1,29.94,North,349,12.0,15.0,36,0.00,,FEW055,0.00,VWS V14.01,2013-02-22 22:23:00,
2013-02-22 16:28:00,59.9,33.6,29.94,North,10,7.0,16.0,37,0.00,,FEW055,0.00,VWS V14.01,2013-02-22 22:28:00,
2013-02-22 16:33:00,60.1,33.1,29.94,NNE,25,3.0,14.0,36,0.00,,FEW055,0.00,VWS V14.01,2013-02-22 22:33:00,
2013-02-22 16:38:00,60.4,33.3,29.94,North,5,6.0,14.0,36,0.00,,FEW055,0.00,VWS V14.01,2013-02-22 22:38:00,
2013-02-22 16:43:00,59.9,32.9,29.94,NW,323,6.0,15.0,36,0.00,,FEW055,0.00,VWS V14.01,2013-02-22 22:43:00,
2013-02-22 16:48:00,59.8,33.5,29.95,North,355,3.0,15.0,37,0.00,,FEW055,0.00,VWS V14.01,2013-02-22 22:48:00,
2013-02-22 16:53:00,59.6,33.3,29.95,North,5,4.0,12.0,37,0.00,,FEW055,0.00,VWS V14.01,2013-02-22 22:53:00,
2013-02-22 16:58:00,59.6,33.3,29.95,NE,36,4.0,12.0,37,0.00,,OVC060,0.00,VWS V14.01,2013-02-22 22:58:00,
2013-02-22 17:03:00,59.3,33.0,29.95,North,5,7.0,13.0,37,0.00,,OVC060,0.00,VWS V14.01,2013-02-22 23:03:00,
2013-02-22 17:08:00,59.3,33.0,29.95,NNE,30,3.0,13.0,37,0.00,,OVC060,0.00,VWS V14.01,2013-02-22 23:08:00,
2013-02-22 17:13:00,59.9,33.6,29.95,NNE,20,4.0,12.0,37,0.00,,OVC060,0.00,VWS V14.01,2013-02-22 23:13:00,
2013-02-22 17:18:00,60.2,33.2,29.95,NNW,328,13.0,13.0,36,0.00,,OVC060,0.00,VWS V14.01,2013-02-22 23:18:00,
2013-02-22 17:23:00,60.4,33.3,29.95,NE,56,4.0,10.0,36,0.00,,OVC060,0.00,VWS V14.01,2013-02-22 23:23:00,
2013-02-22 17:28:00,60.1,33.1,29.95,NNW,343,6.0,14.0,36,0.00,,OVC060,0.00,VWS V14.01,2013-02-22 23:28:00,
2013-02-22 17:33:00,59.8,32.8,29.95,NNE,30,5.0,11.0,36,0.00,,OVC060,0.00,VWS V14.01,2013-02-22 23:33:00,
2013-02-22 17:38:00,59.6,33.3,29.95,NNW,335,1.0,11.0,37,0.00,,OVC060,0.00,VWS V14.01,2013-02-22 23:38:00,
2013-02-22 17:43:00,59.6,33.3,29.95,NNE,17,3.0,8.0,37,0.00,,OVC060,0.00,VWS V14.01,2013-02-22 23:43:00,
2013-02-22 17:48:00,59.5,33.9,29.95,NE,38,3.0,13.0,38,0.00,,OVC060,0.00,VWS V14.01,2013-02-22 23:48:00,
2013-02-22 17:53:00,59.3,33.7,29.95,NE,38,5.0,5.0,38,0.00,,OVC060,0.00,VWS V14.01,2013-02-22 23:53:00,
2013-02-22 17:58:00,58.9,33.4,29.95,NE,38,4.0,8.0,38,0.00,,SCT060,0.00,VWS V14.01,2013-02-22 23:58:00,
2013-02-22 18:03:00,58.7,33.8,29.95,NE,42,2.0,10.0,39,0.00,,SCT060,0.00,VWS V14.01,2013-02-23 00:03:00,
2013-02-22 18:08:00,58.4,33.6,29.95,North,355,8.0,12.0,39,0.00,,SCT060,0.00,VWS V14.01,2013-02-23 00:08:00,
2013-02-22 18:13:00,58.0,33.8,29.95,North,355,5.0,9.0,40,0.00,,SCT060,0.00,VWS V14.01,2013-02-23 00:13:00,
2013-02-22 18:18:00,57.6,33.5,29.97,NNW,341,6.0,10.0,40,0.00,,SCT060,0.00,VWS V14.01,2013-02-23 00:18:00,
2013-02-22 18:23:00,57.2,33.7,29.97,NNW,343,6.0,11.0,41,0.00,,SCT060,0.00,VWS V14.01,2013-02-23 00:23:00,
2013-02-22 18:28:00,56.7,33.3,29.97,North,5,4.0,11.0,41,0.00,,SCT060,0.00,VWS V14.01,2013-02-23 00:28:00,
2013-02-22 18:33:00,56.6,33.8,29.97,NE,34,7.0,11.0,42,0.00,,SCT060,0.00,VWS V14.01,2013-02-23 00:33:00,
2013-02-22 18:38:00,56.2,33.4,29.97,NNE,13,3.0,11.0,42,0.00,,SCT060,0.00,VWS V14.01,2013-02-23 00:38:00,
2013-02-22 18:43:00,55.9,33.2,29.97,NNE,24,5.0,9.0,42,0.00,,SCT060,0.00,VWS V14.01,2013-02-23 00:43:00,
2013-02-22 18:48:00,55.7,33.0,29.98,NNW,342,9.0,11.0,42,0.00,,SCT060,0.00,VWS V14.01,2013-02-23 00:48:00,
2013-02-22 18:53:00,55.6,33.5,29.98,NNW,338,4.0,7.0,43,0.00,,SCT060,0.00,VWS V14.01,2013-02-23 00:53:00,
2013-02-22 18:58:00,55.3,33.2,29.98,North,355,4.0,11.0,43,0.00,,OVC050,0.00,VWS V14.01,2013-02-23 00:58:00,
2013-02-22 19:03:00,55.1,33.0,30.00,North,355,6.0,11.0,43,0.00,,OVC050,0.00,VWS V14.01,2013-02-23 01:03:00,
2013-02-22 19:08:00,55.0,33.5,30.00,NE,48,8.0,12.0,44,0.00,,OVC050,0.00,VWS V14.01,2013-02-23 01:08:00,
2013-02-22 19:13:00,54.8,33.3,30.00,NNW,331,7.0,7.0,44,0.00,,OVC050,0.00,VWS V14.01,2013-02-23 01:13:00,
2013-02-22 19:18:00,54.7,33.2,29.99,NNE,31,5.0,7.0,44,0.00,,OVC050,0.00,VWS V14.01,2013-02-23 01:18:00,
2013-02-22 19:23:00,54.7,33.2,29.99,NW,325,7.0,10.0,44,0.00,,OVC050,0.00,VWS V14.01,2013-02-23 01:23:00,
2013-02-22 19:28:00,54.7,33.2,29.99,NNW,339,8.0,15.0,44,0.00,,OVC050,0.00,VWS V14.01,2013-02-23 01:28:00,
2013-02-22 19:33:00,54.7,33.2,29.99,NNW,340,4.0,12.0,44,0.00,,OVC050,0.00,VWS V14.01,2013-02-23 01:33:00,
2013-02-22 19:38:00,54.7,33.2,29.99,NNE,20,9.0,12.0,44,0.00,,OVC050,0.00,VWS V14.01,2013-02-23 01:38:00,
2013-02-22 19:43:00,54.7,33.2,29.99,NNW,346,5.0,12.0,44,0.00,,OVC050,0.00,VWS V14.01,2013-02-23 01:43:00,
2013-02-22 19:48:00,54.7,33.2,30.00,North,355,7.0,13.0,44,0.00,,OVC050,0.00,VWS V14.01,2013-02-23 01:48:00,
2013-02-22 19:53:00,54.7,33.2,30.00,NE,49,7.0,8.0,44,0.00,,OVC050,0.00,VWS V14.01,2013-02-23 01:53:00,
2013-02-22 19:58:00,54.5,33.0,30.00,NE,41,4.0,9.0,44,0.00,,FEW050,0.00,VWS V14.01,2013-02-23 01:58:00,
2013-02-22 20:03:00,54.4,33.5,30.01,North,355,8.0,10.0,45,0.00,,FEW050,0.00,VWS V14.01,2013-02-23 02:03:00,
2013-02-22 20:08:00,54.4,33.5,30.01,NW,318,4.0,13.0,45,0.00,,FEW050,0.00,VWS V14.01,2013-02-23 02:08:00,
2013-02-22 20:13:00,54.2,33.3,30.01,NNW,328,9.0,9.0,45,0.00,,FEW050,0.00,VWS V14.01,2013-02-23 02:13:00,
2013-02-22 20:18:00,54.2,33.9,30.02,North,355,4.0,9.0,46,0.00,,FEW050,0.00,VWS V14.01,2013-02-23 02:18:00,
2013-02-22 20:23:00,54.1,33.8,30.02,NW,319,3.0,7.0,46,0.00,,FEW050,0.00,VWS V14.01,2013-02-23 02:23:00,
2013-02-22 20:28:00,54.1,33.8,30.02,North,355,3.0,11.0,46,0.00,,FEW050,0.00,VWS V14.01,2013-02-23 02:28:00,
2013-02-22 20:33:00,54.1,33.8,30.02,North,9,5.0,11.0,46,0.00,,FEW050,0.00,VWS V14.01,2013-02-23 02:33:00,
2013-02-22 20:38:00,54.1,33.8,30.02,NNW,331,6.0,13.0,46,0.00,,FEW050,0.00,VWS V14.01,2013-02-23 02:38:00,
2013-02-22 20:43:00,54.1,33.8,30.02,NNW,338,4.0,11.0,46,0.00,,FEW050,0.00,VWS V14.01,2013-02-23 02:43:00,
2013-02-22 20:48:00,54.1,34.3,30.03,NNE,12,3.0,11.0,47,0.00,,FEW050,0.00,VWS V14.01,2013-02-23 02:48:00,
2013-02-22 20:53:00,54.1,34.3,30.03,NNW,344,3.0,10.0,47,0.00,,FEW050,0.00,VWS V14.01,2013-02-23 02:53:00,
2013-02-22 20:58:00,53.9,34.2,30.03,NNE,21,5.0,12.0,47,0.00,,CLR,0.00,VWS V14.01,2013-02-23 02:58:00,
2013-02-22 21:03:00,53.9,34.2,30.03,NNW,336,6.0,11.0,47,0.00,,CLR,0.00,VWS V14.01,2013-02-23 03:03:00,
2013-02-22 21:08:00,53.9,34.7,30.03,NNE,14,3.0,11.0,48,0.00,,CLR,0.00,VWS V14.01,2013-02-23 03:08:00,
2013-02-22 21:13:00,53.8,34.6,30.03,NW,318,3.0,12.0,48,0.00,,CLR,0.00,VWS V14.01,2013-02-23 03:13:00,
2013-02-22 21:18:00,53.6,34.4,30.03,NW,325,7.0,12.0,48,0.00,,CLR,0.00,VWS V14.01,2013-02-23 03:18:00,
2013-02-22 21:23:00,53.5,34.3,30.03,North,10,11.0,12.0,48,0.00,,CLR,0.00,VWS V14.01,2013-02-23 03:23:00,
2013-02-22 21:28:00,53.5,34.3,30.03,NNW,342,6.0,12.0,48,0.00,,CLR,0.00,VWS V14.01,2013-02-23 03:28:00,
2013-02-22 21:33:00,53.3,34.1,30.05,North,355,6.0,13.0,48,0.00,,CLR,0.00,VWS V14.01,2013-02-23 03:33:00,
2013-02-22 21:38:00,53.2,34.0,30.05,North,5,10.0,13.0,48,0.00,,CLR,0.00,VWS V14.01,2013-02-23 03:38:00,
2013-02-22 21:43:00,53.2,34.0,30.05,North,10,7.0,7.0,48,0.00,,CLR,0.00,VWS V14.01,2013-02-23 03:43:00,
2013-02-22 21:48:00,52.9,33.8,30.05,North,349,10.0,13.0,48,0.00,,CLR,0.00,VWS V14.01,2013-02-23 03:48:00,
2013-02-22 21:53:00,52.9,33.8,30.05,NNW,335,4.0,10.0,48,0.00,,CLR,0.00,VWS V14.01,2013-02-23 03:53:00,
2013-02-22 21:58:00,52.6,33.5,30.05,NNE,31,5.0,11.0,48,0.00,,CLR,0.00,VWS V14.01,2013-02-23 03:58:00,
2013-02-22 22:03:00,52.5,33.9,30.05,NNE,32,8.0,12.0,49,0.00,,CLR,0.00,VWS V14.01,2013-02-23 04:03:00,
2013-02-22 22:08:00,52.3,33.7,30.05,NNE,26,4.0,13.0,49,0.00,,CLR,0.00,VWS V14.01,2013-02-23 04:08:00,
2013-02-22 22:13:00,52.2,33.6,30.05,North,355,4.0,12.0,49,0.00,,CLR,0.00,VWS V14.01,2013-02-23 04:13:00,
2013-02-22 22:18:00,52.0,33.5,30.05,NNE,15,6.0,14.0,49,0.00,,CLR,0.00,VWS V14.01,2013-02-23 04:18:00,
2013-02-22 22:23:00,51.9,33.4,30.05,NNW,346,9.0,12.0,49,0.00,,CLR,0.00,VWS V14.01,2013-02-23 04:23:00,
2013-02-22 22:28:00,51.7,33.2,30.05,North,355,8.0,13.0,49,0.00,,CLR,0.00,VWS V14.01,2013-02-23 04:28:00,
2013-02-22 22:33:00,51.6,33.1,30.05,NNE,24,6.0,12.0,49,0.00,,CLR,0.00,VWS V14.01,2013-02-23 04:33:00,
2013-02-22 22:38:00,51.6,33.1,30.05,NNW,343,3.0,22.0,49,0.00,,CLR,0.00,VWS V14.01,2013-02-23 04:38:00,
2013-02-22 22:43:00,51.4,32.9,30.05,NNE,26,6.0,14.0,49,0.00,,CLR,0.00,VWS V14.01,2013-02-23 04:43:00,
2013-02-22 22:48:00,51.3,32.8,30.05,NNE,17,7.0,14.0,49,0.00,,CLR,0.00,VWS V14.01,2013-02-23 04:48:00,
2013-02-22 22:53:00,51.1,32.6,30.05,NNW,343,3.0,16.0,49,0.00,,CLR,0.00,VWS V14.01,2013-02-23 04:53:00,
2013-02-22 22:58:00,50.8,32.3,30.05,NNW,346,9.0,16.0,49,0.00,,CLR,0.00,VWS V14.01,2013-02-23 04:58:00,
2013-02-22 23:00:00,50.8,32.3,30.05,NNW,335,9.0,16.0,49,0.00,,CLR,0.00,VWS V14.01,2013-02-23 05:00:00,
2013-02-22 23:05:00,50.7,32.2,30.05,NNW,344,9.0,15.0,49,0.00,,CLR,0.00,VWS V14.01,2013-02-23 05:05:00,
2013-02-22 23:10:00,50.5,32.6,30.05,NW,326,11.0,15.0,50,0.00,,CLR,0.00,VWS V14.01,2013-02-23 05:10:00,
2013-02-22 23:15:00,50.4,32.5,30.05,North,360,13.0,16.0,50,0.00,,CLR,0.00,VWS V14.01,2013-02-23 05:15:00,
2013-02-22 23:20:00,50.2,32.3,30.05,NNE,19,4.0,17.0,50,0.00,,CLR,0.00,VWS V14.01,2013-02-23 05:20:00,
2013-02-22 23:25:00,50.1,32.2,30.05,North,5,13.0,13.0,50,0.00,,CLR,0.00,VWS V14.01,2013-02-23 05:25:00,
2013-02-22 23:30:00,49.9,32.0,30.05,NNE,21,3.0,13.0,50,0.00,,CLR,0.00,VWS V14.01,2013-02-23 05:30:00,
2013-02-22 23:35:00,49.8,31.9,30.05,NNW,338,14.0,14.0,50,0.00,,CLR,0.00,VWS V14.01,2013-02-23 05:35:00,
2013-02-22 23:40:00,49.8,31.9,30.05,NNE,26,9.0,14.0,50,0.00,,CLR,0.00,VWS V14.01,2013-02-23 05:40:00,
2013-02-22 23:45:00,49.6,31.7,30.05,NNW,337,6.0,12.0,50,0.00,,CLR,0.00,VWS V14.01,2013-02-23 05:45:00,
2013-02-22 23:50:00,49.6,31.7,30.05,NW,312,2.0,14.0,50,0.00,,CLR,0.00,VWS V14.01,2013-02-23 05:50:00,
2013-02-22 23:55:00,49.6,31.7,30.05,North,5,4.0,11.0,50,0.00,,CLR,0.00,VWS V14.01,2013-02-23 05:55:00,